period_start,C,m1,H,J0,J1,J2,J3,J4,J5,JA,JB,JC,JD,JJ,JK,JN,#
2015-11-05 00:03:32,0.03,1.15,0.00,17.92,22.34,26.17,15.02,49.17,1027.85,2053.98,3138.39,2976.88,3243.96,600.13,613.30,22.81,0000 0000 0000 0000 000000
2015-11-05 00:08:33,0.04,1.15,0.00,17.93,22.34,26.17,15.12,49.21,1027.85,2053.97,3137.99,2976.08,3243.15,600.43,613.71,22.86,0000 0000 0000 0000 000000
2015-11-05 00:13:34,0.04,1.16,0.00,17.94,22.35,26.22,15.04,48.93,1027.85,2053.97,3137.31,2975.74,3242.59,600.07,613.17,22.91,0000 0000 0000 0000 000000
2015-11-05 00:18:36,0.03,1.16,0.00,17.94,22.36,26.18,15.08,49.04,1027.85,2053.97,3136.41,2975.01,3241.90,600.26,613.34,22.96,0000 0000 0000 0000 000000
2015-11-05 00:23:37,0.06,1.16,0.00,17.95,22.37,26.18,15.02,49.26,1027.86,2053.96,3135.21,2974.05,3240.95,600.02,613.01,23.01,0000 0000 0000 0000 000000
2015-11-05 00:28:38,0.08,1.16,0.00,17.97,22.37,26.13,15.07,49.05,1027.85,2053.97,3133.93,2972.90,3239.80,600.26,613.31,23.06,0000 0000 0000 0000 000000
2015-11-05 00:33:39,0.08,1.17,0.00,17.98,22.37,26.19,14.99,49.30,1027.86,2053.97,3132.53,2971.80,3238.56,600.16,613.20,23.11,0000 0000 0000 0000 000000
2015-11-05 00:38:40,0.05,1.17,0.00,17.99,22.37,26.27,15.04,49.25,1027.86,2053.96,3131.33,2970.92,3237.63,600.06,613.05,23.16,0000 0000 0000 0000 000000
2015-11-05 00:43:41,0.04,1.17,0.00,17.99,22.37,26.24,14.90,49.19,1027.87,2053.96,3130.17,2970.06,3236.91,599.91,612.80,23.21,0000 0000 0000 0000 000000
2015-11-05 00:48:43,0.05,1.18,0.00,18.01,22.38,26.22,15.07,49.10,1027.92,2053.96,3129.34,2969.34,3236.01,600.02,613.02,23.26,0000 0000 0000 0000 000000
2015-11-05 00:53:44,0.07,1.18,0.00,18.02,22.39,26.26,15.00,49.07,1028.09,2053.97,3128.21,2968.33,3234.85,599.95,613.02,23.31,0000 0000 0000 0000 000000
2015-11-05 00:58:45,0.07,1.18,0.00,18.02,22.39,26.29,15.10,49.07,1028.17,2053.97,3127.09,2967.40,3233.73,600.25,613.37,23.36,0000 0000 0000 0000 000000
2015-11-05 01:03:47,0.06,1.19,0.00,18.04,22.39,26.30,15.05,48.99,1028.20,2053.97,3126.10,2966.10,3232.69,599.90,613.06,23.41,0000 0000 0000 0000 000000
2015-11-05 01:08:48,0.04,1.19,0.00,18.05,22.41,26.28,14.96,49.00,1028.33,2053.89,3125.37,2965.38,3231.98,600.27,613.33,23.46,0000 0000 0000 0000 000000
2015-11-05 01:13:49,0.04,1.19,0.00,18.07,22.42,26.24,14.98,48.92,1028.33,2053.82,3124.62,2964.76,3231.16,599.61,612.72,23.51,0000 0000 0000 0000 000000
2015-11-05 01:18:51,0.03,1.19,0.00,18.08,22.42,26.30,14.98,48.82,1028.33,2053.79,3123.82,2964.04,3230.46,599.73,612.91,23.56,0000 0000 0000 0000 000000
2015-11-05 01:23:52,0.01,1.19,0.00,18.09,22.43,26.26,15.08,48.93,1028.32,2053.53,3123.02,2963.50,3229.95,599.91,612.94,23.61,0000 0000 0000 0000 000000
2015-11-05 01:28:53,0.05,1.20,0.00,18.11,22.44,26.29,14.99,49.04,1028.32,2053.55,3122.24,2962.85,3229.18,599.96,612.98,23.66,0000 0000 0000 0000 000000
2015-11-05 01:33:55,0.04,1.20,0.00,18.12,22.45,26.29,15.00,48.95,1028.32,2053.54,3121.56,2962.08,3228.48,599.90,612.90,23.71,0000 0000 0000 0000 000000
2015-11-05 01:38:56,0.00,1.20,0.00,18.13,22.47,26.24,15.13,49.01,1028.32,2053.35,3120.91,2961.84,3227.96,600.51,613.50,23.76,0000 0000 0000 0000 000000
2015-11-05 01:43:57,0.04,1.20,0.00,18.15,22.48,26.34,15.07,48.99,1028.33,2053.23,3120.05,2961.04,3227.12,600.01,613.00,23.81,0000 0000 0000 0000 000000
2015-11-05 01:48:59,0.05,1.20,0.00,18.17,22.49,26.23,14.93,48.88,1028.33,2053.14,3119.16,2960.31,3226.39,599.63,612.53,23.86,0000 0000 0000 0000 000000
2015-11-05 01:54:00,0.02,1.20,0.00,18.18,22.51,26.31,15.00,48.92,1028.33,2053.07,3118.42,2959.95,3225.88,600.10,612.91,23.91,0000 0000 0000 0000 000000
2015-11-05 01:59:01,0.05,1.21,0.00,18.20,22.52,26.32,14.99,48.91,1028.34,2053.05,3117.45,2959.05,3224.94,600.04,612.82,23.96,0000 0000 0000 0000 000000
2015-11-05 02:04:02,0.07,1.21,0.00,18.22,22.53,26.28,14.94,48.83,1028.35,2053.01,3115.93,2958.01,3223.86,599.99,612.72,24.01,0000 0000 0000 0000 000000
2015-11-05 02:09:04,0.11,1.21,0.00,18.23,22.54,26.30,14.89,48.79,1028.36,2053.01,3114.16,2956.73,3222.51,599.74,612.58,24.06,0000 0000 0000 0000 000000
2015-11-05 02:14:05,0.13,1.22,0.00,18.24,22.57,26.29,14.98,48.95,1028.36,2053.01,3111.59,2954.94,3220.64,600.13,612.90,24.11,0000 0000 0000 0000 000000
2015-11-05 02:19:06,0.14,1.23,0.00,18.27,22.58,26.34,15.07,49.02,1028.36,2053.00,3108.67,2952.92,3218.44,600.07,612.87,24.16,0000 0000 0000 0000 000000
2015-11-05 02:24:07,0.13,1.24,0.00,18.28,22.59,26.33,15.02,48.88,1028.36,2053.00,3105.89,2951.11,3216.46,599.93,612.61,24.21,0000 0000 0000 0000 000000
2015-11-05 02:29:09,0.13,1.24,0.00,18.29,22.62,26.35,15.07,48.98,1028.37,2053.00,3103.20,2949.24,3214.44,600.14,612.74,24.26,0000 0000 0000 0000 000000
2015-11-05 02:34:10,0.13,1.25,0.00,18.31,22.63,26.33,14.92,48.92,1028.39,2053.00,3100.46,2947.42,3212.46,599.72,612.35,24.31,0000 0000 0000 0000 000000
2015-11-05 02:39:11,0.10,1.26,0.00,18.32,22.64,26.40,14.98,48.91,1028.44,2052.98,3098.16,2945.79,3210.77,599.96,612.70,24.36,0000 0000 0000 0000 000000
2015-11-05 02:44:12,0.10,1.26,0.00,18.34,22.66,26.38,14.95,48.85,1028.58,2052.98,3096.15,2944.50,3209.35,600.11,612.76,24.41,0000 0000 0000 0000 000000
2015-11-05 02:49:14,0.11,1.27,0.00,18.34,22.68,26.36,14.97,48.87,1028.69,2052.96,3093.86,2942.98,3207.61,599.85,612.60,24.46,0000 0000 0000 0000 000000
2015-11-05 02:54:15,0.10,1.27,0.00,18.37,22.69,26.44,14.83,48.86,1028.80,2052.88,3091.60,2941.46,3205.97,599.65,612.47,24.51,0000 0000 0000 0000 000000
2015-11-05 02:59:17,0.08,1.28,0.00,18.38,22.72,26.45,14.96,48.99,1028.82,2052.57,3089.27,2939.81,3204.26,599.81,612.55,24.56,0000 0000 0000 0000 000000
2015-11-05 03:04:18,0.11,1.28,0.00,18.39,22.73,26.39,15.04,48.98,1028.82,2052.41,3086.75,2938.19,3202.45,599.86,612.59,24.61,0000 0000 0000 0000 000000
2015-11-05 03:09:19,0.07,1.29,0.00,18.42,22.75,26.37,14.95,48.99,1028.82,2052.14,3084.72,2936.71,3200.83,600.24,612.94,24.66,0000 0000 0000 0000 000000
2015-11-05 03:14:20,0.09,1.29,0.00,18.44,22.77,26.37,15.03,48.89,1028.82,2052.08,3082.81,2935.41,3199.44,600.37,612.99,24.71,0000 0000 0000 0000 000000
2015-11-05 03:19:21,0.10,1.29,0.00,18.46,22.79,26.49,15.05,49.00,1028.84,2052.03,3080.82,2933.91,3198.00,600.26,612.80,24.76,0000 0000 0000 0000 000000
2015-11-05 03:24:23,0.09,1.30,0.00,18.47,22.81,26.47,14.99,48.77,1028.85,2052.00,3078.94,2932.64,3196.59,600.11,612.67,24.81,0000 0000 0000 0000 000000
2015-11-05 03:29:24,0.07,1.30,0.00,18.48,22.82,26.47,15.01,48.98,1028.86,2052.00,3077.41,2931.66,3195.46,599.96,612.52,24.86,0000 0000 0000 0000 000000
2015-11-05 03:34:25,0.06,1.31,0.00,18.49,22.84,26.46,15.07,49.08,1028.96,2052.00,3076.20,2930.69,3194.45,600.18,612.77,24.91,0000 0000 0000 0000 000000
2015-11-05 03:39:26,0.05,1.31,0.00,18.51,22.86,26.54,14.97,48.92,1029.06,2051.99,3075.04,2929.90,3193.54,600.21,612.85,24.96,0000 0000 0000 0000 000000
2015-11-05 03:44:28,0.06,1.31,0.00,18.53,22.87,26.51,15.04,48.80,1029.16,2051.99,3073.88,2929.03,3192.60,600.03,612.83,25.01,0000 0000 0000 0000 000000
2015-11-05 03:49:29,0.05,1.32,0.00,18.54,22.89,26.53,14.96,48.80,1029.16,2051.98,3072.84,2928.18,3191.84,599.94,612.55,25.06,0000 0000 0000 0000 000000
2015-11-05 03:54:30,0.08,1.32,0.00,18.55,22.91,26.60,15.02,49.01,1029.29,2051.97,3071.29,2927.19,3190.55,599.94,612.61,25.11,0000 0000 0000 0000 000000
2015-11-05 03:59:31,0.09,1.32,0.00,18.58,22.92,26.61,15.02,48.97,1029.29,2051.97,3069.63,2925.93,3189.30,600.29,612.87,25.16,0000 0000 0000 0000 000000
2015-11-05 04:04:32,0.04,1.33,0.00,18.59,22.94,26.62,15.02,48.94,1029.28,2051.88,3068.23,2925.01,3188.18,600.12,612.69,25.21,0000 0000 0000 0000 000000
2015-11-05 04:09:34,0.06,1.33,0.00,18.62,22.96,26.59,14.91,48.85,1029.24,2051.82,3067.23,2924.19,3187.39,599.51,612.00,25.26,0000 0000 0000 0000 000000
2015-11-05 04:14:35,0.01,1.33,0.00,18.65,22.98,26.66,14.99,48.80,1029.28,2051.47,3066.23,2923.46,3186.62,600.11,612.50,25.31,0000 0000 0000 0000 000000
2015-11-05 04:19:36,0.01,1.33,0.00,18.67,22.99,26.64,14.98,48.92,1029.27,2051.21,3065.41,2922.91,3185.97,600.34,612.67,25.36,0000 0000 0000 0000 000000
2015-11-05 04:24:37,0.05,1.33,0.00,18.69,23.01,26.66,14.92,48.91,1029.30,2051.08,3064.53,2922.12,3185.14,600.19,612.60,25.41,0000 0000 0000 0000 000000
2015-11-05 04:29:38,0.05,1.34,0.00,18.71,23.03,26.69,14.96,49.02,1029.31,2051.01,3063.69,2921.42,3184.38,599.93,612.26,25.46,0000 0000 0000 0000 000000
2015-11-05 04:34:40,0.03,1.34,0.00,18.72,23.04,26.66,14.85,48.77,1029.31,2051.01,3062.77,2920.87,3183.70,599.67,611.99,25.51,0000 0000 0000 0000 000000
2015-11-05 04:39:42,0.04,1.34,0.00,18.74,23.07,26.68,14.97,48.89,1029.31,2051.00,3061.89,2920.10,3182.94,599.91,612.17,25.56,0000 0000 0000 0000 000000
2015-11-05 04:44:43,0.05,1.34,0.00,18.76,23.08,26.71,14.98,48.81,1029.31,2051.00,3060.93,2919.43,3182.09,600.12,612.33,25.61,0000 0000 0000 0000 000000
2015-11-05 04:49:44,0.05,1.35,0.00,18.78,23.09,26.72,14.97,48.99,1029.31,2051.00,3059.97,2918.75,3181.31,599.97,612.20,25.66,0000 0000 0000 0000 000000
2015-11-05 04:54:46,0.04,1.35,0.00,18.79,23.12,26.75,14.96,48.74,1029.31,2050.99,3059.02,2918.01,3180.56,599.88,612.00,25.71,0000 0000 0000 0000 000000
2015-11-05 04:59:47,0.05,1.35,0.00,18.81,23.13,26.73,14.82,48.78,1029.31,2050.98,3058.06,2917.27,3179.85,599.56,611.76,25.76,0000 0000 0000 0000 000000
2015-11-05 05:04:48,0.04,1.35,0.00,18.83,23.14,26.75,14.90,48.71,1029.31,2050.98,3057.13,2916.71,3179.04,599.69,611.79,25.81,0000 0000 0000 0000 000000
2015-11-05 05:09:50,0.05,1.36,0.00,18.85,23.17,26.74,14.91,48.67,1029.31,2050.96,3056.36,2915.89,3178.25,599.97,612.14,25.86,0000 0000 0000 0000 000000
2015-11-05 05:14:51,0.09,1.36,0.00,18.87,23.18,26.77,14.98,48.68,1029.31,2050.92,3054.65,2914.72,3176.99,600.21,612.20,25.91,0000 0000 0000 0000 000000
2015-11-05 05:19:52,0.06,1.36,0.00,18.89,23.19,26.82,14.97,48.92,1029.31,2050.69,3052.94,2913.55,3175.71,599.86,611.73,25.96,0000 0000 0000 0000 000000
2015-11-05 05:24:53,0.07,1.37,0.00,18.89,23.21,26.82,14.95,48.93,1029.31,2050.39,3051.04,2912.25,3174.27,600.00,611.96,26.01,0000 0000 0000 0000 000000
2015-11-05 05:29:54,0.09,1.37,0.00,18.91,23.22,26.88,15.00,48.75,1029.31,2050.20,3048.91,2910.74,3172.71,600.24,612.18,26.06,0000 0000 0000 0000 000000
2015-11-05 05:34:56,0.08,1.38,0.00,18.92,23.23,26.85,14.89,48.66,1029.31,2050.06,3046.72,2909.24,3171.07,599.92,611.83,26.11,0000 0000 0000 0000 000000
2015-11-05 05:39:57,0.11,1.38,0.00,18.94,23.24,26.98,14.95,48.80,1029.32,2050.08,3044.62,2907.76,3169.58,600.23,612.13,26.16,0000 0000 0000 0000 000000
2015-11-05 05:44:58,0.08,1.39,0.00,18.95,23.26,27.02,14.93,48.70,1029.35,2050.03,3042.66,2906.39,3168.01,600.25,612.09,26.21,0000 0000 0000 0000 000000
2015-11-05 05:49:59,0.12,1.39,0.00,18.96,23.27,26.94,14.98,48.67,1029.38,2050.01,3040.60,2904.84,3166.37,600.02,611.90,26.26,0000 0000 0000 0000 000000
2015-11-05 05:55:00,0.12,1.40,0.00,18.97,23.28,26.96,15.00,48.72,1029.56,2050.00,3038.29,2903.13,3164.54,600.20,612.18,26.31,0000 0000 0000 0000 000000
2015-11-05 06:00:02,0.12,1.40,0.00,18.99,23.29,27.00,14.97,48.79,1029.72,2050.00,3036.07,2901.53,3162.82,599.99,611.90,26.36,0000 0000 0000 0000 000000
2015-11-05 06:05:03,0.10,1.41,0.00,18.99,23.29,27.05,14.94,48.68,1029.79,2050.00,3033.85,2900.04,3161.22,600.03,612.03,26.41,0000 0000 0000 0000 000000
2015-11-05 06:10:05,0.09,1.41,0.00,19.00,23.31,27.04,14.97,48.74,1029.79,2050.00,3032.02,2898.82,3159.91,600.01,611.91,26.47,0000 0000 0000 0000 000000
2015-11-05 06:15:06,0.09,1.42,0.00,19.02,23.32,27.01,14.97,48.75,1029.80,2050.00,3030.37,2897.64,3158.66,600.04,612.00,26.52,0000 0000 0000 0000 000000
2015-11-05 06:20:07,0.08,1.42,0.00,19.02,23.33,27.02,14.93,48.75,1029.80,2049.99,3028.56,2896.42,3157.27,600.22,612.30,26.57,0000 0000 0000 0000 000000
2015-11-05 06:25:09,0.12,1.43,0.00,19.01,23.34,27.09,14.95,48.69,1029.80,2049.98,3026.46,2894.85,3155.61,599.50,611.50,26.62,0000 0000 0000 0000 000000
2015-11-05 06:30:10,0.11,1.44,0.00,18.98,23.34,27.12,14.96,48.78,1029.80,2049.97,3024.16,2893.20,3153.80,599.78,611.79,26.67,0000 0000 0000 0000 000000
2015-11-05 06:35:11,0.11,1.44,0.00,18.94,23.36,27.20,14.98,48.77,1029.80,2049.96,3021.86,2891.64,3152.20,599.72,611.88,26.72,0000 0000 0000 0000 000000
2015-11-05 06:40:12,0.09,1.45,0.00,18.90,23.37,27.14,14.98,48.75,1029.80,2049.96,3020.06,2890.31,3150.77,600.13,612.31,26.77,0000 0000 0000 0000 000000
2015-11-05 06:45:13,0.09,1.45,0.00,18.89,23.37,27.10,14.97,48.67,1029.80,2049.96,3018.33,2889.17,3149.47,599.80,612.05,26.82,0000 0000 0000 0000 000000
2015-11-05 06:50:15,0.07,1.46,0.00,18.89,23.37,27.15,15.02,48.87,1029.83,2049.94,3016.74,2888.07,3148.24,599.87,612.08,26.87,0000 0000 0000 0000 000000
2015-11-05 06:55:16,0.04,1.46,0.00,18.89,23.38,27.15,14.87,48.76,1029.82,2049.85,3015.88,2887.30,3147.49,599.57,611.91,26.92,0000 0000 0000 0000 000000
2015-11-05 07:00:17,0.01,1.46,0.00,18.92,23.39,27.13,14.99,48.62,1029.89,2049.66,3015.05,2886.90,3146.97,600.10,612.35,26.97,0000 0000 0000 0000 000000
2015-11-05 07:05:19,0.04,1.46,0.00,18.94,23.39,27.14,14.96,48.84,1029.94,2049.64,3014.45,2886.16,3146.26,599.89,612.13,27.02,0000 0000 0000 0000 000000
2015-11-05 07:10:20,0.02,1.46,0.00,18.96,23.40,27.16,14.91,48.67,1030.00,2049.81,3014.00,2885.99,3145.98,599.89,612.19,27.07,0000 0000 0000 0000 000000
2015-11-05 07:15:21,0.05,1.46,0.00,18.98,23.40,27.18,14.89,48.74,1030.03,2049.68,3013.28,2885.35,3145.24,599.93,612.32,27.12,0000 0000 0000 0000 000000
2015-11-05 07:20:22,-0.02,1.46,0.00,18.99,23.40,27.16,14.96,48.69,1029.93,2049.47,3012.87,2885.00,3144.98,600.17,612.23,27.17,0000 0000 0000 0000 000000
2015-11-05 07:25:24,0.03,1.47,0.00,19.01,23.42,27.12,14.96,48.79,1030.03,2049.33,3012.07,2884.47,3144.20,600.16,612.34,27.22,0000 0000 0000 0000 000000
2015-11-05 07:30:25,0.04,1.47,0.00,19.03,23.42,27.21,14.94,48.73,1030.16,2049.37,3011.40,2884.00,3143.95,599.81,612.00,27.27,0000 0000 0000 0000 000000
2015-11-05 07:35:26,0.02,1.47,0.00,19.04,23.42,27.23,15.06,48.84,1030.19,2049.27,3010.94,2883.59,3143.14,600.15,612.15,27.32,0000 0000 0000 0000 000000
2015-11-05 07:40:27,0.03,1.47,0.00,19.04,23.42,27.22,14.99,48.65,1030.28,2049.38,3010.16,2883.04,3142.93,599.87,612.01,27.37,0000 0000 0000 0000 000000
2015-11-05 07:45:29,0.03,1.47,0.00,19.06,23.42,27.21,15.04,48.77,1030.29,2049.17,3009.64,2882.78,3142.10,600.17,612.36,27.42,0000 0000 0000 0000 000000
2015-11-05 07:50:30,0.02,1.47,0.00,19.08,23.44,27.20,14.98,48.73,1030.29,2049.11,3009.00,2882.06,3141.87,600.06,612.16,27.47,0000 0000 0000 0000 000000
2015-11-05 07:55:31,0.03,1.47,0.00,19.09,23.45,27.21,14.96,48.77,1030.29,2049.08,3008.31,2881.84,3141.09,599.60,611.72,27.52,0000 0000 0000 0000 000000
2015-11-05 08:00:33,0.05,1.48,0.00,19.09,23.45,27.22,15.01,48.64,1030.29,2049.06,3007.70,2881.05,3140.58,600.11,612.29,27.57,0000 0000 0000 0000 000000
2015-11-05 08:05:34,0.05,1.48,0.00,19.11,23.45,27.21,14.97,48.62,1030.31,2049.04,3006.77,2880.25,3139.83,600.39,612.50,27.62,0000 0000 0000 0000 000000
2015-11-05 08:10:35,0.05,1.48,0.00,19.12,23.47,27.24,14.91,48.57,1030.29,2049.01,3005.76,2879.54,3139.00,599.85,611.92,27.67,0000 0000 0000 0000 000000
2015-11-05 08:15:36,0.03,1.49,0.00,19.13,23.47,27.25,15.09,48.91,1030.30,2049.03,3005.00,2879.01,3138.16,600.38,612.61,27.72,0000 0000 0000 0000 000000
2015-11-05 08:20:37,0.04,1.49,0.00,19.14,23.48,27.26,14.99,48.78,1030.35,2049.03,3004.17,2878.68,3137.77,600.02,612.12,27.77,0000 0000 0000 0000 000000
2015-11-05 08:25:39,0.03,1.49,0.00,19.14,23.50,27.26,14.82,48.73,1030.36,2049.01,3003.47,2878.02,3137.03,599.41,611.46,27.82,0000 0000 0000 0000 000000
2015-11-05 08:30:40,0.05,1.49,0.00,19.16,23.50,27.26,14.94,48.80,1030.41,2049.01,3002.71,2877.34,3136.27,599.79,611.84,27.87,0000 0000 0000 0000 000000
2015-11-05 08:35:41,0.03,1.49,0.00,19.18,23.52,27.26,14.96,48.78,1030.44,2049.00,3001.89,2876.82,3135.63,600.12,612.14,27.92,0000 0000 0000 0000 000000
2015-11-05 08:40:42,0.04,1.50,0.00,19.19,23.52,27.30,14.99,48.83,1030.66,2049.00,3001.03,2876.05,3135.02,600.04,612.34,27.97,0000 0000 0000 0000 000000
2015-11-05 08:45:43,0.05,1.50,0.00,19.19,23.55,27.27,15.05,48.84,1030.75,2049.00,3000.15,2875.43,3134.41,600.37,612.51,28.02,0000 0000 0000 0000 000000
2015-11-05 08:50:44,0.02,1.50,0.00,19.21,23.55,27.27,14.92,48.75,1030.77,2049.00,2999.67,2874.95,3133.90,599.63,611.79,28.07,0000 0000 0000 0000 000000
2015-11-05 08:55:45,0.06,1.50,0.00,19.22,23.57,27.26,14.95,48.79,1030.78,2049.00,2998.71,2874.18,3133.10,599.66,611.86,28.12,0000 0000 0000 0000 000000
2015-11-05 09:00:46,0.04,1.50,0.00,19.24,23.57,27.27,14.99,48.74,1030.78,2048.98,2997.85,2873.61,3132.36,600.17,612.21,28.17,0000 0000 0000 0000 000000
2015-11-05 09:05:48,0.02,1.51,0.00,19.24,23.60,27.34,14.96,48.80,1030.78,2048.99,2997.04,2873.01,3131.96,599.92,611.97,28.22,0000 0000 0000 0000 000000
2015-11-05 09:10:50,0.04,1.51,0.00,19.26,23.60,27.36,14.95,48.76,1030.78,2048.99,2996.54,2872.66,3131.18,600.12,612.19,28.27,0000 0000 0000 0000 000000
2015-11-05 09:15:51,0.03,1.51,0.00,19.27,23.62,27.33,14.97,48.77,1030.78,2048.98,2995.72,2872.01,3130.63,600.00,611.97,28.32,0000 0000 0000 0000 000000
2015-11-05 09:20:52,0.07,1.51,0.00,19.27,23.62,27.34,15.01,48.76,1030.78,2048.97,2994.69,2871.13,3129.67,600.25,612.25,28.37,0000 0000 0000 0000 000000
2015-11-05 09:25:53,0.05,1.52,0.00,19.27,23.63,27.33,14.86,48.68,1030.78,2048.93,2993.50,2869.96,3128.36,599.51,611.49,28.42,0000 0000 0000 0000 000000
2015-11-05 09:30:54,0.04,1.52,0.00,19.29,23.65,27.40,14.99,48.74,1030.78,2048.82,2992.68,2869.12,3127.66,599.91,611.99,28.47,0000 0000 0000 0000 000000
2015-11-05 09:35:56,0.05,1.52,0.00,19.29,23.65,27.34,14.99,48.77,1030.78,2048.66,2991.82,2868.41,3126.85,600.33,612.27,28.52,0000 0000 0000 0000 000000
2015-11-05 09:40:57,0.04,1.52,0.00,19.29,23.67,27.37,14.93,48.91,1030.78,2048.54,2990.76,2867.68,3125.97,600.01,611.87,28.57,0000 0000 0000 0000 000000
2015-11-05 09:45:59,0.05,1.53,0.00,19.31,23.67,27.43,15.01,48.80,1030.78,2048.44,2989.58,2866.78,3124.96,600.09,611.99,28.62,0000 0000 0000 0000 000000
2015-11-05 09:51:00,0.08,1.53,0.00,19.32,23.68,27.35,14.95,48.80,1030.78,2048.31,2987.88,2865.67,3123.79,599.97,611.94,28.67,0000 0000 0000 0000 000000
2015-11-05 09:56:01,0.13,1.54,0.00,19.33,23.70,27.37,14.95,48.74,1030.78,2048.18,2985.27,2863.93,3121.90,599.86,611.76,28.72,0000 0000 0000 0000 000000
2015-11-05 10:01:03,0.15,1.54,0.00,19.34,23.70,27.43,15.03,48.67,1030.78,2048.12,2982.03,2861.75,3119.60,600.26,612.23,28.77,0000 0000 0000 0000 000000
2015-11-05 10:06:04,0.15,1.55,0.00,19.36,23.71,27.46,14.93,48.69,1030.78,2048.03,2978.90,2859.52,3117.21,600.25,612.08,28.82,0000 0000 0000 0000 000000
2015-11-05 10:11:06,0.14,1.56,0.00,19.37,23.72,27.52,14.96,48.70,1030.78,2048.02,2976.13,2857.57,3115.18,599.89,611.70,28.87,0000 0000 0000 0000 000000
2015-11-05 10:16:07,0.16,1.57,0.00,19.38,23.72,27.50,14.93,48.54,1030.78,2048.01,2973.10,2855.47,3113.04,599.89,611.65,28.92,0000 0000 0000 0000 000000
2015-11-05 10:21:07,0.11,1.57,0.00,19.39,23.74,27.48,14.95,48.62,1030.80,2048.00,2970.67,2853.72,3111.25,600.08,611.96,28.97,0000 0000 0000 0000 000000
2015-11-05 10:26:09,0.08,1.58,0.00,19.42,23.75,27.47,15.01,48.59,1030.81,2048.00,2969.13,2852.59,3110.01,600.09,611.86,29.02,0000 0000 0000 0000 000000
2015-11-05 10:31:11,0.07,1.58,0.00,19.42,23.75,27.47,14.93,48.63,1030.82,2048.00,2967.77,2851.65,3108.92,599.70,611.60,29.07,0000 0000 0000 0000 000000
2015-11-05 10:36:12,0.04,1.59,0.00,19.42,23.77,27.46,14.96,48.56,1030.84,2048.00,2966.73,2850.96,3108.03,599.83,611.61,29.12,0000 0000 0000 0000 000000
2015-11-05 10:41:13,0.05,1.59,0.00,19.42,23.77,27.51,14.94,48.42,1030.92,2048.00,2966.01,2850.16,3107.39,600.07,611.91,29.17,0000 0000 0000 0000 000000
2015-11-05 10:46:15,0.03,1.59,0.00,19.44,23.77,27.49,14.95,48.57,1030.94,2047.99,2965.23,2849.85,3106.90,599.80,611.47,29.22,0000 0000 0000 0000 000000
2015-11-05 10:51:16,0.05,1.59,0.00,19.44,23.79,27.59,14.93,48.58,1030.97,2047.98,2964.24,2849.00,3106.00,600.16,612.03,29.27,0000 0000 0000 0000 000000
2015-11-05 10:56:17,0.06,1.60,0.00,19.46,23.80,27.61,14.94,48.67,1031.01,2047.98,2962.98,2848.09,3105.05,599.85,611.66,29.32,0000 0000 0000 0000 000000
2015-11-05 11:01:19,0.06,1.60,0.00,19.47,23.80,27.59,15.00,48.56,1031.00,2047.96,2961.91,2847.26,3104.16,599.69,611.45,29.37,0000 0000 0000 0000 000000
2015-11-05 11:06:20,0.04,1.60,0.00,19.47,23.81,27.55,14.93,48.58,1031.12,2047.95,2960.98,2846.74,3103.43,600.04,611.87,29.42,0000 0000 0000 0000 000000
2015-11-05 11:11:21,0.04,1.60,0.00,19.49,23.82,27.60,15.00,48.60,1031.06,2047.96,2960.08,2846.02,3102.80,600.19,612.00,29.47,0000 0000 0000 0000 000000
2015-11-05 11:16:22,0.05,1.61,0.00,19.49,23.82,27.62,15.00,48.52,1031.11,2047.95,2959.23,2845.30,3102.01,600.02,611.88,29.52,0000 0000 0000 0000 000000
2015-11-05 11:21:24,0.05,1.61,0.00,19.49,23.83,27.56,15.05,48.62,1031.04,2047.93,2958.21,2844.59,3101.12,600.12,611.85,29.57,0000 0000 0000 0000 000000
2015-11-05 11:26:25,0.01,1.61,0.00,19.49,23.84,27.60,14.90,48.63,1031.01,2047.67,2957.35,2843.97,3100.41,599.60,611.32,29.63,0000 0000 0000 0000 000000
2015-11-05 11:31:26,0.04,1.61,0.00,19.49,23.85,27.59,14.93,48.43,1030.88,2047.43,2956.44,2843.16,3099.77,599.99,611.51,29.68,0000 0000 0000 0000 000000
2015-11-05 11:36:28,0.03,1.61,0.00,19.51,23.85,27.62,14.97,48.61,1031.01,2047.34,2955.84,2842.70,3099.02,599.73,611.37,29.73,0000 0000 0000 0000 000000
2015-11-05 11:41:29,0.03,1.62,0.00,19.52,23.86,27.65,14.98,48.52,1031.06,2047.27,2955.01,2842.03,3098.41,600.24,611.94,29.78,0000 0000 0000 0000 000000
2015-11-05 11:46:30,0.06,1.62,0.00,19.52,23.87,27.66,14.94,48.72,1031.21,2047.33,2954.12,2841.40,3097.75,599.93,611.71,29.83,0000 0000 0000 0000 000000
2015-11-05 11:51:32,0.02,1.62,0.00,19.53,23.87,27.72,14.97,48.62,1031.25,2047.18,2953.38,2840.85,3097.02,599.92,611.87,29.88,0000 0000 0000 0000 000000
2015-11-05 11:56:33,0.05,1.62,0.00,19.54,23.87,27.71,15.01,48.61,1031.24,2047.11,2952.65,2840.06,3096.28,600.15,611.94,29.93,0000 0000 0000 0000 000000
2015-11-05 12:01:34,0.02,1.62,0.00,19.55,23.89,27.69,15.00,48.65,1031.18,2047.12,2952.00,2839.76,3095.94,600.04,611.71,29.98,0000 0000 0000 0000 000000
2015-11-05 12:06:35,0.04,1.63,0.00,19.56,23.90,27.69,14.96,48.73,1031.13,2047.03,2951.13,2839.03,3095.12,599.88,611.48,30.03,0000 0000 0000 0000 000000
2015-11-05 12:11:37,0.05,1.63,0.00,19.57,23.90,27.69,15.04,48.65,1031.15,2047.03,2950.58,2838.58,3094.58,600.51,612.03,30.08,0000 0000 0000 0000 000000
2015-11-05 12:16:38,0.02,1.63,0.00,19.57,23.90,27.72,14.93,48.72,1031.18,2047.01,2949.84,2837.88,3093.84,600.10,611.76,30.13,0000 0000 0000 0000 000000
2015-11-05 12:21:40,0.05,1.63,0.00,19.57,23.92,27.74,14.95,48.73,1031.20,2047.00,2949.05,2837.08,3093.06,599.26,610.92,30.18,0000 0000 0000 0000 000000
2015-11-05 12:26:41,0.05,1.63,0.00,19.57,23.92,27.76,14.95,48.65,1031.24,2047.00,2948.29,2836.70,3092.55,600.14,611.98,30.23,0000 0000 0000 0000 000000
2015-11-05 12:31:43,0.04,1.64,0.00,19.58,23.92,27.71,14.95,48.70,1031.19,2047.00,2947.53,2835.98,3091.79,599.89,611.50,30.28,0000 0000 0000 0000 000000
2015-11-05 12:36:44,0.05,1.64,0.00,19.59,23.94,27.72,14.99,48.66,1031.08,2047.00,2946.62,2835.15,3091.03,600.14,611.72,30.33,0000 0000 0000 0000 000000
2015-11-05 12:41:45,0.04,1.64,0.00,19.59,23.95,27.79,14.92,48.67,1031.06,2047.00,2945.85,2834.68,3090.29,599.89,611.39,30.38,0000 0000 0000 0000 000000
2015-11-05 12:46:46,0.03,1.64,0.00,19.60,23.95,27.70,14.98,48.77,1031.09,2047.00,2945.01,2834.01,3089.75,599.71,611.22,30.43,0000 0000 0000 0000 000000
2015-11-05 12:51:48,0.05,1.65,0.00,19.61,23.97,27.77,14.97,48.69,1031.03,2047.00,2944.14,2833.26,3088.94,600.17,611.61,30.48,0000 0000 0000 0000 000000
2015-11-05 12:56:50,0.05,1.65,0.00,19.62,23.97,27.78,14.93,48.91,1031.01,2047.00,2943.23,2832.70,3088.10,599.76,611.21,30.53,0000 0000 0000 0000 000000